Vorticity
9 8 8 9 7 7 7 6 6 4 4 6 6 6 5 4 4 4 5 5 5 6 6 6 6 6 6 5 4 5 6 8 9 8 9 10 11 11 10 10 10 8 8 8 8 8 8 9 9 9 9 10 9 10 10 10 10 10 9 10 10 9 8 8 9 10 11 10 9 10 10 8 7 6 7 8 6 5 6 3 5 6 5 6 6
6 7 8 8 8 10 10 8 7 7 6 6 5 5 4 3 4 4 5 5 5 6 6 6 6 6 5 4 4 6 7 7 8 8 9 10 9 9 8 8 8 8 8 8 8 8 8 8 9 8 8 9 8 9 9 9 9 9 9 9 9 9 9 8 8 9 10 11 9 9 10 9 8 8 7 8 7 5 7 6 5 7 6 6 7
8 6 6 6 8 9 8 7 6 6 5 4 4 3 3 4 5 5 5 5 5 5 5 5 6 5 4 4 4 5 5 6 6 7 9 9 8 7 7 7 8 8 8 8 8 8 8 8 8 8 7 8 8 8 8 9 9 9 9 10 9 9 10 9 9 9 9 9 10 10 10 10 9 9 8 7 8 7 7 7 7 8 8 7 7
11 8 4 4 6 6 5 5 4 5 5 6 5 5 6 6 6 5 4 5 4 4 5 5 5 4 4 4 4 4 5 4 5 8 9 9 7 6 7 7 8 9 8 8 8 7 7 7 7 8 8 8 9 9 10 10 10 10 10 11 11 11 11 11 11 11 11 9 10 11 12 11 10 10 10 8 8 8 7 7 8 9 10 10 8
4 7 6 7 7 6 7 6 7 10 11 10 9 7 7 6 6 6 4 4 4 4 6 5 4 5 4 5 5 4 4 4 5 9 9 8 7 6 7 8 8 9 8 7 7 6 7 7 8 9 9 9 10 10 11 11 10 11 11 11 11 11 11 12 12 11 12 11 9 10 12 12 11 10 11 11 9 9 8 7 7 7 8 11 9
-2 6 11 11 8 6 6 4 4 7 6 8 8 6 7 6 5 5 4 4 5 5 5 5 4 5 4 5 6 4 4 5 6 9 9 7 6 6 7 8 8 8 7 6 7 7 7 8 8 9 9 10 11 10 11 12 11 11 11 11 11 11 10 11 11 10 11 11 10 9 10 11 11 9 10 13 11 10 11 8 7 7 6 8 9
12 20 20 15 9 5 5 3 3 4 4 5 5 3 5 4 4 6 5 5 5 4 4 5 4 4 3 4 5 4 4 6 7 10 9 6 6 7 8 8 8 8 6 6 7 7 8 9 9 10 11 11 11 11 10 10 10 10 10 10 9 10 10 10 11 11 11 12 12 11 11 11 11 9 8 11 11 9 11 11 8 9 8 6 8
14 16 15 14 12 10 10 9 8 7 6 6 7 6 6 5 5 6 4 4 4 3 4 4 4 4 4 4 5 4 4 6 8 8 7 6 7 8 8 8 7 7 6 7 8 9 10 11 11 12 13 12 11 11 10 8 8 8 9 11 11 12 13 13 12 13 13 13 14 13 14 14 15 14 10 10 11 9 11 14 10 8 9 7 8
7 9 12 13 14 13 14 13 11 10 9 8 8 6 5 4 4 3 3 4 3 3 5 5 5 5 4 5 5 4 5 7 6 6 6 7 8 8 8 8 7 7 7 8 9 10 11 12 12 11 11 12 12 12 12 11 10 9 9 9 10 11 13 14 15 16 16 16 16 15 16 16 16 18 16 14 14 12 10 14 13 8 9 9 9
6 10 13 12 11 10 9 8 7 6 6 5 5 4 4 5 5 4 4 4 4 6 6 5 6 5 4 5 4 4 7 6 5 6 7 7 8 8 8 7 7 7 9 10 11 12 12 11 10 9 8 10 11 12 14 15 15 16 16 15 14 13 14 15 16 17 17 17 17 17 17 17 16 18 19 17 17 16 13 14 15 11 10 9 7
9 9 8 7 7 6 5 5 4 4 5 4 4 4 4 4 5 6 8 7 7 7 7 7 7 5 6 6 3 6 10 7 5 7 7 8 8 7 7 6 7 9 10 12 13 11 11 10 8 8 8 9 11 12 14 15 15 17 18 18 18 17 15 14 14 14 14 14 14 14 13 14 14 14 16 17 17 18 17 16 17 15 13 12 8
12 9 6 4 3 3 3 3 3 3 4 5 5 5 7 9 10 9 8 8 8 8 8 8 7 7 8 6 5 11 13 7 5 8 8 8 7 6 6 7 9 11 12 12 11 9 8 9 9 10 11 11 12 12 12 14 14 14 15 15 15 15 15 15 14 13 13 13 13 14 14 14 14 13 13 13 13 15 17 17 18 18 16 15 9
6 4 3 3 3 3 2 1 2 3 3 4 5 5 7 9 7 5 5 7 8 8 9 9 9 9 10 10 13 17 12 6 7 9 8 7 7 6 7 9 11 13 12 10 9 8 8 9 10 12 13 13 13 13 13 14 13 13 15 15 15 15 15 15 15 16 17 17 16 17 18 18 18 18 17 16 14 13 13 15 16 19 19 17 13
4 2 2 3 3 3 3 3 3 4 4 5 5 5 6 7 6 5 7 9 10 9 11 11 11 13 16 18 18 14 8 7 9 9 7 6 7 7 10 12 12 11 9 8 7 8 9 10 12 13 13 13 13 14 14 15 15 15 14 12 12 13 13 14 17 17 16 17 18 18 19 20 19 20 21 22 22 19 15 14 13 16 19 18 16
3 3 2 3 3 4 6 6 7 7 7 7 6 5 6 6 7 9 11 13 15 13 12 12 14 17 19 18 14 9 8 10 9 7 7 6 8 10 12 13 11 8 8 8 8 10 11 12 13 13 13 14 14 15 16 15 15 14 11 11 13 14 16 18 16 16 17 20 22 23 25 29 30 28 25 23 25 25 23 20 15 13 16 19 18
1 2 2 4 6 7 8 9 8 9 9 9 10 13 13 11 15 22 24 19 13 10 11 14 16 17 15 11 9 9 9 9 7 5 6 7 10 13 12 10 8 7 8 9 10 12 13 13 14 14 14 15 15 16 16 14 13 12 12 16 17 17 19 18 17 23 28 28 31 39 47 51 50 46 42 38 35 32 30 27 22 17 14 16 18
1 2 4 5 6 7 8 8 8 10 10 11 14 22 29 24 16 15 14 10 7 9 12 14 13 12 10 9 9 9 8 6 5 6 8 11 13 12 9 8 7 8 10 11 12 13 13 14 14 14 15 16 16 15 13 12 12 14 17 18 18 18 16 17 28 36 30 27 37 43 41 35 35 43 52 56 54 47 39 34 30 25 18 15 17
2 4 7 6 6 7 8 9 10 11 11 13 13 16 23 22 10 3 5 8 11 13 12 11 11 10 9 9 8 7 6 5 6 9 12 13 12 9 7 8 9 10 12 13 13 14 14 14 14 15 16 16 15 13 11 13 14 16 18 16 16 17 13 23 44 38 18 23 33 21 7 9 23 40 46 49 56 55 48 43 37 30 22 17 17
6 7 8 7 8 9 10 10 11 10 11 16 20 19 19 18 14 11 13 14 12 11 11 10 10 8 8 8 7 5 5 7 10 13 13 11 9 7 8 10 11 12 13 14 15 14 13 14 14 16 17 14 13 11 11 14 16 15 16 15 15 15 15 35 51 29 12 29 27 -1 -8 10 28 32 18 14 35 52 52 48 44 36 27 21 19
7 7 7 9 10 10 10 10 10 11 12 16 21 20 16 13 12 11 12 11 9 10 10 8 8 8 8 7 5 5 8 11 13 12 10 9 8 8 10 12 12 14 14 14 14 13 12 14 15 16 15 11 11 12 13 15 15 14 15 16 14 14 24 41 41 17 15 35 24 -3 -1 18 30 28 9 0 20 41 49 48 43 38 31 23 19
5 6 7 9 10 9 10 10 9 11 13 14 15 14 11 10 10 9 9 9 8 8 8 7 8 9 7 6 6 9 12 13 12 10 8 8 9 10 12 13 13 14 14 13 13 12 12 15 15 14 12 10 10 13 13 14 14 12 14 15 11 15 32 41 27 9 14 28 24 14 13 18 29 33 21 12 18 28 39 46 41 35 32 26 20
5 7 8 8 8 9 10 10 10 10 11 12 13 12 10 9 9 8 8 8 7 8 9 9 8 6 5 7 10 12 13 11 10 8 7 8 11 12 13 14 14 14 14 12 12 12 13 15 14 12 11 10 10 12 12 13 13 11 12 13 8 13 35 45 27 8 10 15 19 24 16 7 21 34 27 22 24 25 30 37 37 32 27 26 24
7 8 8 7 8 11 11 12 12 12 12 13 12 10 10 9 9 8 8 9 9 9 9 7 7 7 8 11 12 12 11 9 7 7 8 10 13 13 14 15 14 13 12 11 11 13 14 14 13 11 10 10 10 11 12 12 13 11 9 12 9 8 27 47 37 16 7 5 10 24 22 8 16 31 31 25 25 26 27 28 29 28 22 22 26
7 7 7 8 9 11 12 13 13 13 14 13 11 10 9 8 8 9 9 9 9 9 8 7 7 9 11 12 12 10 8 7 7 9 11 12 14 15 15 15 14 12 11 11 13 15 14 13 12 10 9 10 10 12 12 12 13 12 8 9 11 6 13 37 46 28 11 3 3 16 25 15 9 19 29 29 22 19 23 25 25 24 20 20 24
7 6 7 8 10 11 12 13 13 13 13 12 10 9 8 8 9 10 9 10 9 7 7 8 9 12 11 11 10 7 6 8 9 11 13 14 15 15 15 14 13 11 11 12 14 14 13 12 12 10 9 10 10 10 12 12 12 13 10 7 10 8 6 24 44 39 22 10 4 7 15 13 7 10 21 30 25 14 13 18 22 26 24 19 22
8 8 8 10 11 12 12 13 13 13 12 11 10 9 8 9 10 10 9 9 7 7 9 10 11 11 10 9 8 7 7 9 11 13 14 15 15 15 14 12 11 11 12 13 13 13 14 13 11 10 9 9 9 9 11 13 12 13 12 8 8 9 5 12 30 39 32 22 13 7 6 7 9 10 12 20 27 24 18 14 14 22 28 19 11
7 7 9 11 12 13 13 13 13 12 10 9 9 8 9 10 10 9 9 8 8 9 10 10 10 9 9 8 7 7 9 11 13 15 16 16 16 15 12 11 11 12 13 13 12 13 14 12 10 11 10 9 9 9 10 11 11 12 14 11 9 9 7 6 16 28 34 33 26 16 7 5 9 12 9 12 22 28 29 21 8 10 29 35 21
7 8 11 13 14 14 13 12 11 10 8 8 8 9 10 10 9 9 8 8 9 10 9 9 10 9 9 7 7 9 11 13 14 16 16 16 14 12 10 10 11 12 12 12 13 14 14 12 11 12 11 8 9 9 8 10 11 10 12 13 11 10 9 7 7 13 23 33 36 31 21 10 3 2 3 10 22 30 37 37 19 -1 1 15 21
8 11 14 16 15 14 12 11 10 8 7 8 9 10 10 9 9 9 8 8 9 10 9 10 10 8 7 7 8 11 13 14 16 17 17 15 12 10 11 11 11 11 11 11 13 13 12 12 12 12 11 10 9 8 7 8 9 9 10 12 12 11 11 9 6 6 11 19 28 35 37 30 16 4 -2 -0 8 16 27 40 42 25 5 -2 3
11 14 15 16 13 11 10 8 7 8 8 9 10 10 9 9 8 8 8 8 10 9 9 10 9 7 7 8 10 14 16 17 19 18 15 13 11 10 11 10 9 10 10 11 13 12 10 11 12 11 11 11 9 9 8 7 7 8 9 10 10 11 12 12 10 8 7 8 12 20 31 39 37 28 15 4 -3 -3 3 17 33 42 42 34 23
12 13 13 12 9 9 8 6 6 7 9 10 10 9 9 8 8 8 9 9 10 9 10 9 7 6 8 11 14 17 18 18 18 16 12 11 9 9 10 9 9 10 10 11 12 11 10 11 11 10 11 11 10 10 9 8 7 7 8 9 9 9 10 11 12 11 9 8 7 7 13 24 34 38 35 26 17 8 3 2 5 13 28 41 42
12 11 10 9 8 8 6 5 6 8 10 10 9 8 8 8 8 9 9 9 10 10 9 7 6 7 11 15 17 18 18 17 16 13 10 9 9 9 9 9 9 9 10 10 10 9 10 10 10 10 10 10 11 10 9 9 9 7 7 8 8 8 9 9 10 12 12 10 9 8 7 8 15 25 32 34 32 27 18 10 4 -0 2 13 24
11 9 9 8 8 6 5 5 7 9 9 9 9 8 8 8 8 9 10 10 10 10 7 6 7 11 14 17 18 18 18 16 13 10 8 8 9 9 8 8 9 9 9 9 9 9 9 9 9 10 9 9 10 10 10 10 9 8 8 7 6 7 9 8 8 10 11 11 11 11 10 8 6 9 16 23 30 34 32 26 18 12 7 4 6
11 9 9 9 7 4 5 7 8 9 9 9 9 8 8 8 9 10 10 10 9 8 6 7 11 15 17 19 19 18 17 13 9 8 8 8 8 8 8 8 9 9 9 9 8 8 9 9 8 9 9 8 9 9 9 10 10 9 9 9 7 7 6 7 8 8 8 10 10 10 11 12 10 8 7 9 14 21 29 33 31 26 21 15 11
10 9 9 8 5 4 6 8 8 9 10 9 9 8 7 9 11 10 9 10 8 7 7 10 15 19 19 19 19 17 13 10 8 8 8 8 7 8 8 7 8 8 8 8 8 8 8 9 8 8 8 8 8 8 9 9 9 9 10 9 8 8 7 6 6 7 7 8 9 9 10 11 11 12 10 9 8 9 14 22 28 31 31 28 22
11 10 9 6 4 5 8 9 8 9 10 8 7 7 9 11 11 9 9 9 7 7 11 15 18 20 19 18 16 13 9 8 8 7 7 7 7 7 7 6 7 7 7 7 8 8 8 8 8 8 8 8 8 8 8 8 8 9 10 9 9 9 8 7 6 6 6 6 6 8 9 9 10 11 11 10 11 10 8 9 13 19 25 28 29
10 9 7 5 6 8 9 8 8 9 8 7 7 9 11 11 10 9 9 8 7 10 15 17 19 19 17 15 12 10 8 7 7 6 6 7 6 6 6 6 6 6 6 6 7 7 8 8 8 8 8 8 8 8 8 8 8 8 9 9 9 9 9 9 8 6 6 6 6 6 7 8 9 10 10 11 11 11 11 10 8 8 11 13 17
10 9 6 5 7 9 7 7 9 9 7 6 8 10 11 10 10 9 8 8 10 14 17 18 18 16 15 12 10 8 7 7 6 6 6 5 5 5 5 5 5 5 5 6 6 6 7 7 7 8 8 8 8 8 8 8 8 8 8 8 9 9 9 9 9 9 7 7 6 6 5 6 7 7 8 10 10 10 11 11 10 10 10 9 9
8 8 6 6 8 8 7 8 9 8 7 8 10 11 11 10 9 8 8 10 13 17 18 18 16 13 12 11 8 6 6 6 6 6 5 4 5 5 5 5 5 5 5 5 6 6 6 6 7 7 8 8 8 9 9 8 8 8 8 8 8 9 9 8 9 10 10 8 7 7 6 5 6 7 7 8 9 10 11 10 10 10 10 9 9
7 9 8 8 9 8 7 8 9 7 8 10 11 11 11 10 8 8 9 12 15 17 16 16 14 12 10 9 7 6 6 6 5 5 5 5 5 5 5 5 5 4 4 5 5 5 6 6 6 7 7 8 9 9 9 9 9 8 8 8 9 9 9 9 9 9 9 9 9 8 7 6 6 6 6 7 8 8 9 10 10 10 11 11 11
9 10 9 8 8 8 7 8 8 7 8 11 12 11 11 9 8 8 11 13 15 16 15 14 13 10 8 7 6 5 5 5 5 4 4 4 4 4 5 5 4 4 4 4 4 5 6 6 7 7 7 8 9 9 9 9 10 9 8 8 8 9 9 10 10 9 9 9 9 9 8 8 7 6 6 6 7 8 8 9 9 9 9 10 10
12 9 8 7 8 8 9 9 8 8 10 12 13 11 10 8 7 9 12 14 15 15 14 13 11 9 7 6 6 5 5 4 4 4 4 4 4 4 5 5 4 4 4 4 4 5 5 6 7 8 8 8 8 9 10 10 10 11 10 8 8 8 9 9 10 10 9 9 9 9 9 8 8 7 6 5 5 6 7 8 8 9 9 9 9
8 7 8 8 9 9 10 8 7 9 12 13 12 10 8 7 8 11 13 14 14 13 12 11 10 9 7 5 5 5 5 4 4 4 4 4 4 5 5 5 4 4 4 4 4 5 5 6 7 7 8 9 9 8 9 10 10 10 11 10 9 9 8 9 10 11 11 10 9 9 9 9 8 8 8 7 6 5 5 6 7 8 8 9 9
8 9 10 10 10 10 9 7 8 11 13 12 10 8 7 7 9 12 13 13 12 11 11 10 8 7 6 5 5 5 5 5 4 4 4 4 5 5 5 5 5 5 4 4 5 5 6 7 8 8 9 9 9 8 8 8 8 8 9 9 9 9 9 10 9 10 10 11 10 9 9 9 9 9 8 7 7 6 5 5 5 6 7 8 8
11 11 11 11 10 9 8 8 11 13 13 11 8 7 7 8 10 12 12 12 11 10 9 8 7 5 5 5 5 5 4 4 4 4 5 5 5 5 5 5 5 5 5 5 5 6 7 7 8 9 10 9 9 9 7 7 7 7 7 8 7 7 7 8 9 9 10 10 11 11 10 9 9 9 9 8 8 7 6 6 5 4 5 5 6
12 12 11 10 9 8 9 11 13 13 11 9 7 6 7 9 10 10 10 9 9 8 7 5 5 5 4 4 4 4 4 4 4 5 5 5 5 5 5 6 6 5 5 6 6 7 8 8 8 8 9 9 9 9 8 7 7 7 7 7 7 6 5 6 7 7 8 9 9 10 11 10 9 8 8 8 8 8 7 7 6 5 5 4 4
14 11 9 8 8 9 10 12 13 12 9 8 7 6 6 8 9 8 8 7 7 6 5 4 4 4 3 3 4 4 5 5 5 5 5 5 5 5 5 6 6 5 5 6 7 8 9 10 10 9 9 9 8 8 7 7 7 6 6 7 7 6 6 6 6 5 6 7 7 8 9 10 10 9 8 9 9 8 8 8 7 6 6 5 5
13 9 8 9 9 9 11 13 12 10 8 7 7 6 6 6 7 7 6 6 5 5 4 4 4 3 4 4 5 5 5 5 5 5 5 5 5 6 7 6 6 6 5 6 7 8 9 9 9 9 9 9 9 9 8 7 6 6 6 6 7 7 6 6 6 7 6 5 6 6 7 8 9 9 9 9 8 8 8 8 8 8 7 7 6
11 10 10 10 9 9 11 12 10 8 7 7 7 6 5 5 6 6 5 5 5 5 5 5 5 4 5 5 5 5 6 6 5 5 5 6 6 7 7 6 6 6 7 8 9 10 11 11 11 10 9 8 8 9 8 8 7 6 6 6 6 7 7 6 6 7 7 6 6 6 6 6 7 7 8 9 8 8 8 9 8 8 9 8 7
13 12 10 10 11 11 10 10 9 8 7 7 6 6 5 4 4 4 5 5 5 5 5 5 5 5 5 5 5 5 5 5 5 4 5 7 7 7 7 6 6 7 9 11 12 13 13 12 12 12 11 9 7 6 6 7 7 7 7 7 7 7 7 7 7 6 6 7 7 6 6 6 6 5 6 7 7 7 8 8 8 9 9 9 9
14 13 11 10 10 9 8 9 9 7 6 6 6 6 5 5 4 4 4 4 4 5 5 5 5 6 6 5 5 5 4 4 5 5 6 7 7 6 6 7 7 8 10 12 13 14 14 13 12 12 11 10 8 7 6 6 6 6 5 6 6 7 7 7 7 7 6 6 7 7 7 6 6 6 6 6 6 7 7 6 7 8 8 8 9
Height
5789 5790 5791 5792 5793 5793 5794 5794 5794 5795 5795 5795 5795 5795 5795 5795 5795 5795 5794 5794 5794 5793 5792 5791 5790 5789 5788 5787 5785 5784 5783 5781 5780 5778 5776 5775 5773 5771 5770 5768 5766 5764 5762 5760 5758 5756 5754 5752 5750 5748 5746 5744 5742 5740 5738 5736 5734 5732 5729 5728 5725 5723 5721 5719 5719 5719 5720 5718 5717 5716 5715 5714 5713 5712 5710 5710 5708 5706 5707 5708 5706 5706 5707 5707 5707
5787 5789 5790 5790 5791 5791 5792 5792 5792 5792 5792 5793 5793 5793 5793 5792 5792 5792 5792 5791 5791 5790 5789 5788 5787 5786 5785 5784 5782 5781 5780 5778 5776 5775 5773 5771 5769 5768 5766 5764 5762 5760 5758 5756 5754 5751 5749 5747 5745 5743 5741 5739 5737 5735 5733 5730 5728 5726 5724 5722 5720 5717 5715 5713 5712 5712 5713 5712 5710 5709 5707 5706 5706 5705 5703 5703 5702 5700 5700 5701 5700 5699 5700 5701 5702
5785 5787 5788 5788 5789 5789 5789 5789 5790 5790 5790 5790 5790 5790 5790 5790 5790 5789 5789 5788 5788 5787 5786 5785 5784 5783 5782 5781 5779 5778 5776 5774 5773 5771 5769 5768 5766 5764 5762 5760 5758 5756 5754 5751 5749 5747 5745 5742 5740 5738 5735 5733 5731 5728 5726 5724 5722 5720 5717 5715 5713 5711 5709 5706 5705 5704 5704 5704 5704 5702 5701 5699 5698 5697 5695 5695 5694 5693 5692 5693 5694 5693 5693 5694 5695
5784 5785 5785 5786 5786 5787 5787 5787 5788 5788 5788 5788 5788 5788 5788 5788 5787 5787 5786 5785 5785 5784 5783 5782 5781 5780 5779 5777 5776 5774 5773 5771 5769 5768 5766 5764 5762 5760 5758 5756 5754 5752 5750 5747 5745 5742 5740 5737 5735 5732 5730 5727 5725 5722 5720 5717 5715 5713 5711 5708 5706 5704 5702 5700 5698 5696 5696 5696 5695 5694 5693 5692 5691 5689 5688 5687 5686 5685 5684 5685 5686 5686 5686 5686 5687
5782 5782 5783 5784 5784 5784 5785 5785 5785 5785 5786 5786 5786 5786 5785 5785 5784 5784 5783 5782 5782 5781 5780 5780 5778 5777 5776 5774 5773 5771 5769 5767 5766 5764 5762 5760 5758 5756 5754 5752 5750 5748 5745 5743 5740 5737 5735 5732 5729 5727 5724 5722 5719 5717 5714 5711 5709 5706 5704 5702 5699 5697 5694 5692 5690 5689 5687 5687 5686 5686 5685 5684 5683 5681 5679 5678 5679 5678 5676 5676 5677 5678 5678 5678 5679
5780 5780 5781 5782 5782 5782 5783 5783 5783 5783 5783 5783 5783 5783 5783 5782 5782 5781 5780 5779 5779 5778 5777 5776 5775 5774 5772 5771 5769 5767 5766 5764 5762 5760 5758 5757 5754 5752 5750 5748 5746 5743 5741 5738 5735 5732 5729 5726 5724 5721 5718 5715 5713 5711 5708 5705 5702 5700 5698 5695 5693 5690 5688 5685 5683 5681 5679 5678 5677 5677 5676 5675 5674 5673 5670 5669 5670 5670 5669 5668 5669 5669 5670 5671 5672
5777 5778 5779 5779 5780 5780 5780 5780 5780 5780 5780 5780 5780 5780 5780 5779 5779 5778 5777 5776 5776 5775 5774 5773 5772 5770 5769 5767 5765 5764 5762 5760 5758 5757 5755 5753 5750 5748 5746 5743 5741 5738 5736 5733 5730 5727 5724 5720 5717 5714 5711 5709 5706 5704 5702 5699 5696 5693 5691 5688 5686 5683 5681 5678 5676 5674 5671 5669 5668 5667 5667 5666 5665 5663 5661 5660 5660 5660 5660 5660 5662 5662 5661 5662 5664
5775 5776 5776 5777 5778 5778 5778 5778 5778 5778 5778 5778 5778 5777 5777 5776 5776 5775 5774 5773 5772 5772 5770 5769 5768 5766 5765 5763 5762 5760 5759 5757 5755 5753 5751 5748 5746 5744 5741 5739 5736 5733 5731 5728 5725 5722 5718 5715 5712 5708 5705 5702 5699 5696 5694 5692 5689 5685 5683 5680 5677 5675 5672 5670 5668 5665 5663 5661 5659 5658 5657 5656 5655 5653 5652 5651 5650 5650 5649 5650 5653 5654 5652 5653 5657
5773 5774 5775 5775 5775 5776 5776 5776 5776 5776 5776 5776 5775 5775 5774 5773 5772 5772 5771 5770 5769 5768 5767 5766 5764 5763 5761 5759 5758 5757 5755 5753 5751 5749 5747 5744 5742 5739 5737 5734 5732 5729 5726 5723 5720 5717 5714 5711 5707 5703 5699 5695 5692 5689 5685 5683 5680 5677 5674 5671 5669 5666 5663 5660 5658 5656 5654 5651 5649 5648 5647 5647 5645 5643 5642 5641 5640 5640 5639 5639 5642 5644 5644 5645 5649
5771 5772 5772 5773 5773 5773 5773 5773 5773 5773 5773 5773 5772 5772 5771 5770 5769 5768 5767 5766 5765 5764 5763 5762 5760 5759 5757 5756 5755 5754 5752 5750 5748 5745 5743 5741 5738 5736 5733 5730 5727 5725 5722 5719 5716 5713 5709 5706 5702 5698 5694 5690 5686 5682 5679 5675 5672 5668 5665 5662 5659 5656 5653 5651 5648 5646 5644 5641 5639 5637 5636 5636 5635 5634 5632 5630 5629 5629 5630 5630 5631 5633 5635 5637 5641
5769 5769 5770 5770 5770 5770 5770 5770 5770 5770 5769 5769 5769 5768 5767 5767 5766 5765 5764 5763 5761 5760 5759 5758 5756 5755 5754 5753 5752 5750 5748 5746 5744 5742 5739 5737 5734 5732 5729 5726 5723 5720 5718 5714 5711 5708 5704 5701 5697 5694 5690 5685 5681 5677 5673 5669 5665 5661 5657 5654 5650 5646 5643 5641 5638 5636 5634 5631 5629 5626 5625 5624 5624 5622 5621 5620 5619 5618 5619 5620 5621 5623 5625 5627 5632
5766 5767 5767 5767 5767 5767 5767 5767 5767 5766 5766 5766 5765 5765 5764 5763 5762 5761 5760 5759 5758 5757 5755 5754 5753 5752 5751 5750 5748 5746 5745 5743 5740 5738 5736 5733 5730 5728 5725 5722 5719 5716 5713 5710 5706 5703 5699 5695 5692 5689 5685 5681 5676 5672 5667 5663 5659 5655 5651 5647 5643 5639 5635 5631 5628 5626 5624 5622 5619 5616 5614 5613 5612 5611 5609 5609 5608 5608 5608 5609 5610 5612 5615 5618 5623
5764 5764 5764 5764 5764 5764 5764 5764 5764 5763 5763 5763 5762 5761 5760 5759 5758 5757 5757 5755 5754 5753 5752 5751 5749 5748 5747 5746 5744 5743 5741 5739 5737 5734 5732 5729 5726 5724 5721 5718 5715 5712 5709 5705 5702 5698 5695 5691 5687 5683 5680 5676 5671 5667 5663 5658 5654 5650 5645 5641 5637 5633 5628 5624 5620 5616 5613 5610 5608 5605 5602 5601 5599 5598 5596 5596 5596 5596 5597 5598 5599 5601 5604 5608 5612
5761 5761 5762 5762 5762 5762 5761 5761 5761 5760 5760 5759 5759 5758 5757 5756 5755 5754 5753 5751 5750 5749 5748 5747 5746 5745 5744 5742 5740 5739 5737 5735 5733 5730 5728 5725 5722 5720 5717 5714 5711 5708 5704 5701 5697 5694 5690 5687 5683 5679 5674 5670 5666 5662 5658 5654 5650 5645 5641 5636 5631 5627 5622 5617 5612 5608 5604 5600 5597 5594 5591 5588 5586 5585 5583 5582 5582 5583 5585 5587 5589 5590 5593 5598 5603
5758 5759 5759 5759 5759 5759 5758 5758 5757 5757 5757 5756 5755 5754 5753 5752 5751 5750 5749 5747 5746 5745 5744 5743 5743 5741 5740 5738 5737 5735 5733 5731 5729 5726 5724 5721 5718 5716 5713 5710 5707 5704 5700 5697 5693 5690 5686 5682 5678 5674 5670 5666 5662 5658 5654 5650 5645 5640 5636 5631 5626 5621 5616 5611 5606 5601 5596 5591 5587 5583 5580 5576 5573 5571 5569 5568 5568 5570 5572 5575 5578 5580 5583 5588 5594
5755 5756 5756 5756 5756 5756 5755 5755 5754 5753 5753 5752 5751 5750 5748 5747 5747 5745 5744 5743 5743 5742 5741 5740 5739 5738 5737 5735 5733 5731 5729 5727 5725 5722 5720 5717 5714 5712 5709 5706 5703 5700 5696 5692 5689 5685 5681 5677 5673 5669 5665 5661 5657 5653 5649 5645 5641 5636 5631 5626 5621 5615 5610 5604 5598 5592 5587 5582 5577 5573 5569 5566 5562 5558 5556 5555 5555 5556 5559 5562 5566 5570 5574 5578 5585
5752 5753 5753 5753 5753 5753 5752 5751 5750 5750 5749 5748 5747 5745 5744 5743 5743 5742 5741 5740 5739 5739 5738 5737 5736 5735 5733 5731 5730 5728 5726 5724 5721 5719 5716 5713 5711 5708 5705 5702 5699 5695 5692 5688 5684 5680 5677 5673 5669 5665 5661 5657 5654 5650 5646 5642 5637 5632 5627 5622 5616 5611 5605 5598 5591 5585 5580 5575 5569 5566 5563 5559 5555 5550 5546 5544 5543 5544 5547 5551 5556 5560 5565 5569 5576
5749 5750 5750 5750 5750 5749 5749 5748 5747 5746 5745 5744 5743 5741 5740 5739 5739 5739 5738 5737 5736 5735 5734 5734 5732 5731 5729 5728 5726 5724 5722 5720 5718 5715 5712 5710 5707 5704 5701 5698 5695 5691 5688 5684 5681 5677 5673 5669 5665 5661 5658 5654 5650 5646 5642 5638 5633 5629 5624 5618 5612 5606 5600 5594 5587 5581 5577 5572 5567 5563 5559 5555 5550 5545 5542 5539 5536 5536 5537 5541 5547 5551 5556 5562 5569
5746 5747 5747 5747 5746 5745 5745 5744 5743 5742 5741 5740 5738 5737 5736 5736 5735 5735 5734 5734 5733 5732 5731 5730 5729 5727 5726 5724 5722 5721 5719 5717 5714 5712 5709 5706 5703 5700 5697 5694 5691 5687 5684 5680 5677 5673 5669 5666 5662 5658 5654 5651 5647 5643 5639 5634 5630 5625 5620 5614 5608 5602 5595 5589 5583 5579 5575 5571 5566 5562 5558 5552 5547 5543 5539 5537 5534 5532 5532 5535 5540 5544 5550 5556 5563
5743 5743 5743 5743 5742 5742 5741 5740 5739 5738 5737 5735 5734 5734 5733 5733 5732 5732 5731 5731 5730 5729 5728 5726 5725 5724 5722 5721 5719 5717 5715 5713 5711 5708 5706 5703 5700 5697 5694 5690 5687 5684 5681 5677 5674 5670 5667 5663 5659 5656 5652 5648 5644 5640 5636 5631 5626 5621 5616 5610 5604 5597 5590 5584 5579 5576 5572 5568 5565 5561 5556 5551 5546 5542 5539 5536 5533 5531 5530 5531 5535 5539 5545 5551 5557
5739 5739 5739 5739 5738 5737 5737 5736 5735 5734 5733 5732 5731 5731 5730 5730 5729 5729 5728 5728 5727 5725 5724 5723 5722 5720 5719 5717 5716 5714 5712 5710 5708 5705 5702 5699 5696 5693 5690 5687 5684 5681 5678 5675 5671 5668 5664 5661 5657 5654 5650 5646 5642 5638 5633 5628 5623 5618 5612 5607 5601 5594 5587 5582 5578 5575 5571 5567 5563 5560 5555 5551 5546 5542 5540 5537 5534 5532 5530 5531 5533 5537 5542 5547 5553
5735 5735 5735 5735 5734 5733 5732 5732 5731 5730 5730 5729 5728 5728 5727 5727 5727 5726 5726 5725 5723 5722 5721 5720 5719 5717 5716 5714 5713 5711 5709 5706 5704 5701 5699 5696 5693 5690 5687 5685 5682 5679 5676 5672 5669 5666 5662 5659 5655 5652 5648 5644 5640 5636 5632 5627 5622 5616 5611 5605 5599 5593 5586 5581 5577 5574 5570 5566 5562 5558 5555 5551 5547 5543 5540 5538 5536 5534 5532 5532 5534 5537 5541 5545 5550
5732 5732 5731 5731 5730 5730 5729 5729 5728 5728 5727 5726 5726 5725 5725 5724 5724 5723 5722 5721 5720 5719 5718 5717 5716 5715 5713 5711 5709 5707 5705 5703 5700 5698 5695 5693 5690 5688 5685 5682 5679 5676 5673 5670 5667 5663 5660 5657 5653 5650 5646 5643 5639 5634 5630 5625 5620 5615 5610 5604 5598 5592 5586 5581 5576 5573 5570 5567 5562 5558 5555 5552 5548 5544 5540 5539 5537 5536 5535 5535 5536 5538 5540 5544 5548
5728 5728 5728 5727 5727 5726 5726 5726 5725 5725 5724 5724 5723 5723 5722 5722 5721 5720 5719 5718 5717 5716 5715 5714 5713 5712 5710 5708 5706 5704 5702 5700 5697 5695 5692 5690 5687 5685 5682 5680 5677 5674 5671 5668 5665 5661 5658 5655 5651 5648 5645 5641 5637 5633 5628 5624 5619 5614 5609 5604 5599 5593 5588 5582 5577 5573 5570 5567 5563 5559 5555 5552 5548 5545 5541 5539 5538 5537 5537 5537 5538 5539 5541 5543 5547
5725 5725 5725 5724 5724 5723 5723 5723 5722 5722 5721 5721 5720 5720 5719 5719 5718 5717 5716 5715 5714 5714 5713 5712 5710 5709 5707 5705 5703 5701 5699 5696 5694 5692 5690 5687 5685 5682 5680 5677 5674 5672 5669 5666 5663 5660 5656 5653 5650 5647 5644 5640 5636 5631 5627 5623 5618 5614 5609 5605 5600 5595 5589 5584 5578 5574 5570 5567 5564 5560 5556 5553 5550 5546 5544 5541 5540 5539 5538 5539 5540 5541 5542 5544 5546
5722 5722 5721 5721 5720 5720 5720 5719 5719 5719 5718 5718 5718 5717 5716 5716 5715 5714 5713 5712 5712 5711 5710 5709 5708 5706 5704 5702 5700 5698 5696 5694 5691 5689 5687 5684 5682 5680 5677 5675 5672 5670 5667 5664 5661 5658 5655 5652 5649 5646 5642 5639 5635 5631 5626 5622 5618 5614 5609 5605 5601 5596 5590 5585 5580 5574 5570 5566 5563 5560 5557 5554 5551 5548 5546 5545 5543 5541 5540 5540 5540 5541 5543 5545 5547
5718 5718 5718 5717 5717 5717 5717 5716 5716 5716 5715 5715 5714 5714 5713 5713 5712 5711 5710 5710 5709 5708 5707 5706 5704 5703 5701 5699 5697 5695 5693 5691 5689 5686 5684 5682 5680 5677 5675 5673 5670 5668 5665 5662 5659 5657 5654 5651 5648 5644 5641 5637 5634 5630 5626 5622 5618 5614 5610 5605 5601 5596 5591 5586 5581 5576 5571 5566 5563 5560 5558 5556 5553 5551 5549 5547 5545 5543 5541 5541 5542 5542 5543 5545 5547
5715 5715 5714 5714 5714 5714 5713 5713 5713 5713 5712 5712 5711 5711 5710 5710 5709 5708 5708 5707 5706 5705 5704 5703 5701 5700 5698 5696 5694 5692 5690 5688 5686 5684 5682 5680 5677 5675 5673 5671 5669 5666 5664 5661 5659 5656 5653 5650 5646 5643 5640 5637 5634 5630 5626 5622 5618 5614 5610 5606 5601 5597 5593 5588 5584 5579 5574 5569 5565 5561 5559 5557 5556 5554 5551 5549 5547 5545 5543 5542 5543 5543 5544 5545 5547
5711 5711 5711 5711 5710 5710 5710 5710 5710 5710 5709 5709 5709 5708 5707 5707 5706 5706 5705 5705 5704 5702 5701 5700 5698 5697 5695 5693 5692 5689 5687 5685 5683 5681 5679 5677 5675 5674 5672 5670 5667 5665 5663 5660 5658 5655 5651 5649 5646 5643 5640 5637 5634 5630 5626 5623 5619 5615 5611 5607 5603 5598 5594 5590 5586 5582 5577 5573 5568 5564 5561 5558 5556 5555 5553 5551 5549 5547 5545 5544 5544 5544 5544 5544 5546
5708 5708 5708 5707 5707 5708 5708 5708 5707 5707 5707 5706 5706 5705 5705 5704 5704 5703 5703 5702 5701 5699 5698 5697 5695 5694 5692 5690 5689 5686 5684 5683 5681 5679 5677 5676 5674 5672 5671 5669 5667 5664 5662 5659 5656 5653 5651 5648 5646 5643 5640 5637 5633 5630 5626 5623 5619 5615 5611 5607 5604 5600 5596 5592 5587 5583 5579 5575 5571 5567 5564 5560 5558 5555 5554 5552 5551 5549 5548 5547 5545 5545 5544 5544 5545
5705 5705 5705 5705 5705 5705 5705 5705 5705 5704 5704 5704 5703 5702 5702 5702 5701 5701 5700 5699 5698 5696 5695 5694 5693 5691 5689 5688 5686 5684 5682 5680 5679 5677 5676 5674 5673 5671 5670 5668 5665 5663 5661 5658 5655 5653 5650 5648 5645 5642 5639 5636 5633 5629 5626 5623 5619 5615 5612 5608 5604 5601 5597 5593 5589 5585 5581 5578 5574 5570 5567 5563 5560 5557 5555 5553 5551 5550 5549 5549 5548 5547 5546 5545 5545
5701 5702 5702 5702 5702 5702 5702 5702 5702 5702 5701 5701 5700 5700 5699 5699 5698 5698 5697 5696 5695 5694 5693 5691 5690 5688 5687 5685 5683 5681 5680 5678 5677 5676 5675 5673 5672 5670 5668 5666 5664 5662 5660 5657 5655 5652 5650 5647 5644 5641 5638 5635 5632 5629 5626 5622 5619 5616 5612 5609 5605 5601 5598 5594 5590 5587 5583 5580 5577 5574 5570 5566 5563 5560 5557 5555 5553 5551 5550 5550 5549 5548 5548 5547 5547
5698 5699 5699 5699 5699 5699 5699 5699 5699 5699 5698 5698 5697 5697 5697 5696 5695 5695 5694 5693 5692 5691 5690 5689 5687 5685 5684 5682 5681 5679 5678 5677 5676 5675 5673 5672 5671 5669 5667 5665 5663 5661 5659 5656 5654 5652 5649 5646 5643 5640 5637 5634 5631 5628 5625 5622 5619 5616 5613 5609 5606 5602 5598 5595 5592 5589 5586 5582 5579 5576 5572 5569 5566 5563 5561 5558 5555 5553 5551 5550 5549 5549 5548 5548 5548
5695 5696 5696 5696 5696 5697 5697 5696 5696 5696 5695 5695 5695 5694 5694 5693 5692 5692 5691 5690 5690 5689 5687 5686 5684 5683 5681 5680 5678 5677 5676 5675 5675 5674 5672 5671 5669 5668 5666 5664 5662 5660 5657 5655 5653 5651 5648 5645 5642 5639 5636 5634 5631 5628 5625 5622 5619 5616 5613 5610 5606 5603 5600 5596 5593 5590 5587 5584 5581 5578 5575 5572 5569 5566 5564 5561 5559 5556 5554 5552 5550 5549 5548 5548 5548
5692 5692 5693 5693 5693 5694 5694 5693 5693 5693 5693 5692 5692 5691 5691 5690 5690 5689 5689 5688 5687 5686 5685 5683 5682 5680 5679 5677 5676 5676 5675 5674 5673 5672 5671 5670 5668 5666 5665 5663 5661 5659 5657 5655 5652 5650 5647 5645 5642 5639 5636 5633 5630 5627 5624 5621 5619 5616 5613 5610 5607 5604 5601 5598 5595 5591 5588 5585 5582 5580 5577 5574 5571 5568 5566 5563 5561 5559 5557 5555 5553 5551 5549 5548 5548
5689 5689 5690 5690 5690 5691 5691 5690 5690 5690 5690 5690 5689 5689 5688 5688 5687 5687 5686 5686 5684 5683 5682 5681 5679 5678 5676 5675 5675 5674 5674 5673 5672 5671 5670 5668 5667 5665 5663 5662 5660 5658 5656 5654 5651 5649 5646 5644 5641 5638 5635 5632 5629 5627 5624 5621 5618 5615 5612 5610 5607 5604 5602 5599 5596 5593 5590 5586 5583 5580 5578 5576 5573 5570 5568 5565 5563 5561 5559 5557 5555 5553 5551 5550 5549
5685 5686 5686 5687 5687 5687 5687 5687 5687 5687 5687 5687 5686 5686 5686 5685 5685 5684 5684 5683 5682 5681 5679 5678 5677 5676 5675 5674 5673 5673 5672 5671 5670 5669 5668 5667 5665 5664 5662 5660 5659 5657 5655 5652 5650 5648 5645 5643 5640 5637 5634 5632 5629 5626 5623 5620 5617 5614 5612 5609 5606 5604 5601 5599 5596 5593 5591 5588 5585 5582 5579 5577 5574 5572 5570 5567 5565 5563 5560 5558 5556 5555 5553 5552 5550
5682 5682 5683 5684 5684 5684 5684 5684 5684 5684 5684 5684 5684 5684 5683 5683 5682 5682 5681 5680 5679 5678 5676 5675 5674 5673 5673 5672 5672 5671 5670 5670 5669 5668 5667 5665 5664 5663 5661 5659 5657 5655 5653 5651 5649 5646 5644 5642 5639 5636 5634 5631 5628 5625 5622 5620 5617 5614 5611 5609 5606 5603 5601 5598 5596 5594 5591 5589 5586 5584 5581 5578 5575 5573 5571 5569 5567 5565 5562 5560 5558 5556 5555 5553 5552
5679 5679 5680 5680 5681 5681 5681 5681 5681 5682 5682 5681 5681 5681 5681 5680 5680 5680 5679 5678 5676 5675 5674 5673 5672 5671 5671 5671 5670 5669 5669 5668 5667 5666 5665 5664 5662 5661 5659 5657 5656 5654 5652 5650 5647 5645 5643 5640 5638 5635 5633 5630 5627 5625 5622 5619 5616 5614 5611 5608 5606 5603 5601 5598 5596 5593 5591 5589 5587 5584 5582 5579 5577 5574 5572 5570 5567 5566 5564 5562 5560 5558 5556 5555 5553
5675 5676 5676 5677 5677 5677 5678 5678 5678 5679 5679 5679 5679 5678 5678 5678 5678 5677 5676 5675 5674 5672 5671 5671 5670 5670 5669 5669 5668 5668 5667 5666 5665 5664 5663 5662 5660 5659 5657 5656 5654 5652 5650 5648 5646 5644 5641 5639 5636 5634 5631 5629 5626 5624 5621 5618 5616 5613 5610 5608 5605 5603 5600 5598 5595 5593 5591 5588 5586 5584 5582 5580 5577 5575 5573 5570 5568 5566 5564 5562 5561 5559 5557 5556 5554
5672 5672 5672 5673 5674 5674 5675 5675 5676 5676 5676 5676 5676 5676 5676 5675 5675 5674 5673 5672 5671 5670 5669 5669 5668 5668 5667 5667 5666 5666 5665 5664 5663 5662 5661 5660 5659 5657 5656 5654 5652 5650 5648 5646 5644 5642 5639 5637 5635 5632 5630 5627 5625 5623 5620 5617 5615 5612 5610 5607 5605 5602 5600 5597 5595 5592 5590 5588 5586 5584 5582 5580 5577 5575 5573 5571 5569 5567 5564 5563 5561 5559 5558 5556 5555
5668 5668 5669 5670 5670 5671 5671 5672 5672 5673 5673 5673 5673 5673 5673 5672 5672 5671 5670 5669 5668 5668 5667 5667 5666 5666 5665 5665 5664 5664 5663 5662 5661 5660 5659 5658 5657 5655 5654 5652 5650 5648 5646 5644 5642 5640 5637 5635 5633 5630 5628 5626 5623 5621 5619 5616 5614 5611 5609 5606 5604 5601 5599 5597 5594 5592 5589 5587 5585 5583 5581 5579 5577 5575 5573 5571 5569 5567 5565 5563 5561 5559 5557 5556 5554
5664 5665 5666 5666 5667 5668 5668 5669 5669 5669 5670 5670 5670 5670 5670 5669 5669 5668 5667 5667 5666 5665 5665 5665 5664 5664 5663 5663 5662 5662 5661 5660 5659 5658 5657 5655 5654 5653 5651 5650 5648 5646 5644 5642 5640 5637 5635 5633 5630 5628 5626 5624 5621 5619 5617 5615 5612 5610 5608 5605 5603 5600 5598 5596 5593 5591 5589 5586 5584 5582 5580 5578 5576 5575 5573 5571 5569 5567 5565 5563 5561 5559 5558 5556 5554
5660 5662 5663 5663 5664 5665 5665 5665 5666 5666 5667 5667 5667 5667 5667 5666 5666 5665 5665 5664 5664 5663 5663 5662 5662 5662 5661 5660 5660 5659 5658 5657 5656 5655 5654 5653 5651 5650 5648 5647 5645 5643 5641 5639 5637 5635 5633 5631 5628 5626 5624 5621 5619 5617 5615 5613 5610 5608 5606 5603 5601 5599 5597 5594 5592 5590 5588 5586 5584 5581 5579 5577 5575 5574 5572 5570 5569 5567 5565 5563 5561 5560 5558 5556 5555
5657 5658 5659 5660 5660 5661 5662 5662 5662 5663 5663 5664 5664 5664 5664 5663 5663 5663 5662 5662 5661 5661 5660 5660 5660 5659 5659 5658 5657 5656 5655 5654 5653 5652 5651 5650 5648 5647 5646 5644 5642 5640 5639 5637 5634 5632 5630 5628 5625 5623 5621 5619 5617 5615 5612 5610 5608 5606 5604 5602 5599 5597 5595 5593 5591 5589 5587 5585 5583 5581 5578 5576 5575 5573 5571 5569 5568 5566 5564 5563 5561 5559 5558 5556 5555
5654 5654 5655 5656 5657 5658 5658 5659 5659 5660 5660 5660 5660 5660 5660 5660 5660 5660 5659 5659 5659 5658 5658 5657 5657 5656 5656 5656 5655 5654 5653 5652 5651 5649 5648 5647 5646 5644 5643 5641 5639 5637 5635 5633 5631 5629 5627 5625 5623 5620 5618 5616 5614 5612 5610 5608 5606 5604 5602 5600 5598 5595 5593 5591 5589 5587 5585 5583 5581 5579 5577 5575 5573 5571 5570 5568 5566 5565 5563 5562 5560 5559 5557 5555 5554
5650 5651 5652 5653 5653 5654 5655 5655 5656 5656 5657 5657 5657 5657 5657 5657 5657 5657 5657 5656 5656 5656 5655 5655 5654 5654 5653 5652 5652 5651 5650 5649 5648 5646 5645 5644 5642 5641 5639 5637 5636 5634 5632 5630 5628 5626 5624 5621 5619 5617 5615 5613 5611 5609 5607 5605 5603 5601 5599 5597 5595 5593 5591 5589 5587 5585 5583 5581 5579 5577 5575 5574 5572 5570 5568 5566 5565 5563 5561 5560 5558 5557 5555 5554 5552
5646 5647 5648 5649 5650 5651 5651 5652 5652 5653 5653 5653 5654 5654 5654 5654 5654 5654 5654 5653 5653 5653 5652 5652 5651 5650 5650 5649 5648 5647 5646 5645 5644 5643 5642 5641 5639 5637 5635 5634 5632 5630 5628 5626 5625 5623 5620 5618 5616 5614 5612 5610 5608 5606 5604 5602 5600 5598 5596 5594 5592 5590 5588 5586 5584 5582 5580 5579 5577 5575 5573 5571 5570 5568 5566 5564 5562 5561 5559 5558 5556 5555 5553 5552 5550
5643 5643 5644 5645 5646 5647 5648 5648 5649 5649 5650 5650 5650 5651 5651 5651 5651 5651 5651 5650 5650 5650 5649 5648 5648 5647 5646 5645 5644 5643 5642 5641 5640 5639 5638 5636 5635 5633 5631 5630 5628 5626 5624 5622 5621 5619 5617 5615 5613 5610 5608 5606 5604 5602 5601 5599 5597 5594 5592 5590 5589 5587 5585 5583 5581 5579 5578 5576 5574 5572 5570 5568 5567 5565 5563 5562 5560 5558 5557 5555 5554 5552 5551 5549 5548
5639 5640 5641 5641 5642 5643 5644 5645 5645 5646 5646 5646 5647 5647 5647 5647 5647 5647 5647 5647 5647 5646 5646 5645 5644 5644 5643 5642 5641 5640 5638 5637 5636 5635 5633 5632 5630 5628 5627 5625 5623 5622 5620 5618 5616 5614 5612 5611 5609 5607 5605 5602 5600 5598 5596 5595 5593 5591 5589 5587 5585 5583 5581 5579 5577 5576 5574 5572 5571 5569 5567 5565 5563 5562 5560 5559 5557 5555 5554 5552 5551 5549 5548 5546 5545
5635 5636 5637 5638 5639 5640 5640 5641 5642 5642 5642 5643 5643 5643 5644 5644 5644 5644 5643 5643 5643 5642 5642 5641 5640 5639 5639 5638 5637 5636 5634 5633 5632 5630 5628 5627 5625 5623 5622 5620 5618 5616 5615 5613 5611 5609 5607 5605 5604 5603 5601 5599 5597 5594 5592 5590 5588 5586 5585 5583 5581 5579 5578 5576 5574 5572 5570 5568 5567 5565 5563 5561 5560 5558 5556 5555 5553 5552 5550 5548 5547 5545 5544 5542 5541